Torna al catalogo

COSMOS 252 DEB

AttivoLEO
NORAD 3898·DEBRIS·🇷🇺 Russia

Lanciato Nov 1, 1968 da Baikonur Cosmodrome

Loading…

Prossimi Passaggi (prossime 24 ore)

TLE

AggiornatoSource: Space-Track

Epoca: Sep 14, 2026, 06:21 UTC

1 03898U 68097BK  26257.26496963  .00001459  00000-0  15786-2 0  9993
2 03898  62.2628 149.6655 0762297  97.4890 271.3291 12.90275616684745

Traccia COSMOS 252 DEB in tempo reale con AllMySat

Download on the App Store